Regional Weather Roundup
Issued by NWS Boston, MA

Home | Current Version | Previous Version | Text Only | Print | Product List | Glossary On
Versions: 1 2 3 4 5 6 7 8 9 10 11 12 13 14 15 16 17 18 19 20 21 22 23 24 25 26 27 28 29 30 31 32 33 34 35 36 37 38 39 40 41 42 43 44 45 46 47
000
ASUS41 KBOX 141410
RWRBOX

REGIONAL WEATHER ROUNDUP
NATIONAL WEATHER SERVICE TAUNTON MA
900 AM EST SUN FEB 14 2016

NOTE:  "FAIR" INDICATES FEW OR NO CLOUDS BELOW 12,000 FEET WITH NO
SIGNIFICANT WEATHER AND/OR OBSTRUCTIONS TO VISIBILITY.  THE FOLLOWING
OBSERVATION LOCATIONS DO NOT REPORT PRESENT WEATHER...PROVINCETOWN...
SMITHFIELD...BLOCK ISLAND...KEENE...AND OXFORD.

MAZALL-141500-
EASTERN MASSACHUSETTS

CITY           SKY/WX    TMP DP  RH WIND       PRES   REMARKS
BOSTON         SUNNY     -5 -21  46 NW18G29   30.37R WCI -28
BEVERLY        SUNNY     -6 -24  41 NW14      30.35R WCI -26
LAWRENCE       SUNNY     -7 -23  45 NW10      30.37R WCI -25
BEDFORD        SUNNY     -7 -24  43 NW12      30.37R WCI -26
BLUE HILL        N/A     -9 -21  56 NW13G29   30.27R WCI -29
NORWOOD        SUNNY     -6 -23  43 NW10      30.38R WCI -24
MARSHFIELD     NOT AVBL
PLYMOUTH       SUNNY     -7 -22  48 NW18      30.34R WCI -30
TAUNTON        SUNNY     -5 -23  41 NW15G23   30.37R WCI -26
NEW BEDFORD    SUNNY     -5 -23  41 NW12G24   30.36R WCI -23
$$

MAZALL-141500-
CAPE COD AND THE ISLANDS

CITY           SKY/WX    TMP DP  RH WIND       PRES   REMARKS
FALMOUTH       SUNNY     -6 -24  41 NW14G22   30.34R WCI -26
HYANNIS        CLOUDY    -3 -14  59 NW15G23   30.31R WCI -23
CHATHAM        SNOW       2  -2  83 VRB7G17   30.30R VSB 1/4 WCI -11
PROVINCETOWN   SNOW       3  -2  79 NW22G32   30.31R VSB 1/2 WCI -19
NANTUCKET      CLOUDY     1  -6  72 NW20      30.32R HAZE    WCI -20
MARTHAS VNYRD  SUNNY     -3 -14  59 NW16      30.34R WCI -24
$$

MAZALL-141500-
CENTRAL AND WESTERN MASSACHUSETTS

CITY           SKY/WX    TMP DP  RH WIND       PRES   REMARKS
WORCESTER      SUNNY    -11 -25  50 NW20G30   30.26R WCI -36
FITCHBURG      MOSUNNY   -7 -23  45 NW13      30.36R WCI -27
ORANGE         SUNNY    -10 -24  50 N7        30.38R WCI -25
SPRINGFIELD    MOSUNNY   -8 -26  41 N12       30.43R WCI -28
WESTFIELD      MOSUNNY   -8 -25  43 N9        30.45R WCI -25
NORTH ADAMS    MOSUNNY  -13 -26  52 VRB5      30.46R WCI -25
PITTSFIELD     SUNNY    -15 -27  54 N9        30.35R WCI -34
$$

RIZALL-141500-
RHODE ISLAND

CITY           SKY/WX    TMP DP  RH WIND       PRES   REMARKS
PROVIDENCE     SUNNY     -5 -23  41 N15G22    30.40R WCI -26
NEWPORT        SUNNY     -5 -17  56 NW21G30   30.35R WCI -29
BLOCK ISLAND   PTSUNNY   -2  -8  78 NW16G26   30.38R WCI -23
SMITHFIELD     SUNNY     -8 -27  37 NW16G23   30.32R WCI -30
WESTERLY       SUNNY     -5 -23  41 NW10G21   30.42R WCI -23
$$

CTZALL-141500-
CONNECTICUT

CITY           SKY/WX    TMP DP  RH WIND       PRES   REMARKS
BRADLEY INTL   SUNNY     -8 -25  43 NW9       30.45R WCI -25
HARTFORD       SUNNY     -6 -23  43 NW9       30.49R WCI -23
BRIDGEPORT     SUNNY     -3 -21  42 NW12G24   30.51R WCI -21
DANBURY        SUNNY     -7 -24  43 NW12G20   30.47R WCI -26
GROTON         SUNNY     -5  -9  83 NW16G28   30.43R WCI -27
NEW HAVEN      SUNNY     -4 -22  41 NW14G22   30.48R WCI -24
CHESTER        FAIR      -6 -24  41 N12G18    30.40S WCI -24
MERIDEN        MIX PCPN  -5 -24  39 NW14      30.46R WCI -25
WILLIMANTIC    MOSUNNY   -6 -24  41 NW17G23   30.42R WCI -28
OXFORD         SUNNY     -9 -29  37 N17G29    30.40R WCI -33
$$

MEZ002-015-021-024-NHZ003-005-008-011-012-014-VTZ005-008-141500-
NORTHERN NEW ENGLAND

CITY           SKY/WX    TMP DP  RH WIND       PRES   REMARKS
PORTLAND ME    SUNNY     -3 -19  46 NW14      30.29R WCI -22
BANGOR ME      MOSUNNY   -7 -19  56 NW12      30.21R WCI -26
CONCORD NH     SUNNY     -9 -24  48 NW16G23   30.36R WCI -32
MANCHESTER NH  SUNNY     -7 -23  45 NW15G23   30.35R WCI -28
NASHUA NH      SUNNY     -6 -22  45 NW14      30.37R WCI -26
PORTSMOUTH NH  MOSUNNY   -6 -23  43 W14G20    30.32R WCI -26
JAFFREY NH     SUNNY    -10 -25  47 VRB5      30.28R WCI -22
KEENE NH       MOSUNNY   -9 -24  49 N13       30.39S WCI -30
BURLINGTON VT  FAIR     -11 -22  58 N7        30.50R WCI -26
MT. WASHINGTON MOSUNNY  -24 -42  38 NW48G56     N/A  WCI -64
$$

NYZ052-076-141500-
EASTERN NEW YORK

CITY           SKY/WX    TMP DP  RH WIND       PRES   REMARKS
ALBANY         SUNNY    -10 -24  50 NW7       30.55R WCI -25
NEW YORK CITY  MOSUNNY    3 -11  52 NW20      30.53R WCI -18
$$

ANZALL-141500-
MARINE OBSERVATIONS

STATION/POSITION TIME  TEMP    WIND        PRES    VSBY  WAVE
                       AIR SEA DIR/SP/G                  HT/PER
                 (UTC) (F)     (DEG/KT/KT) (MB)    (MI)  (FT/S)
BOSTON BUOY      1350   -1 40  310/ 16/ 21 1027.7R         5/ 5
BUZZARDS BAY     1300          320/ 26/ 30 1027.9R
NANTUCKET SOUND  1350   -1 37  320/ 17/ 23 1026.9R         3/ 4
MASS BAY-STELLWA 1304   -1 41  330/ 14/ 16   N/A    1 7/8  5/ 4
ISLE OF SHOALS   1300   -7     310/ 23/ 27 1025.3R
S OF BLOCK IS    NOT AVBL
$$

......................KEY.........................
  SKY/WX - SKY CONDITION/PRESENT WEATHER
  TMP    - TEMPERATURE IN FAHRENHEIT
  DWPT   - DEWPOINT IN FAHRENHEIT
  RH     - RELATIVE HUMIDITY IN PERCENT
  WIND   - DIRECTION AND SPEED IN MPH
  PRES   - MEAN SEA LEVEL PRESSURE IN INCHES OF HG
  WCI    - WIND CHILL INDEX
  VSB    - VISIBILITY IN MILES
  HX     - HEAT INDEX
  TC     - TEMPERATURE IN CELSIUS
  VRB    - VARIABLE WIND DIRECTION
  N/A    - NOT AVAILABLE




USA.gov is the U.S. government's official web portal to all federal, state and local government web resources and services.